Terminal Aerodrome Forecast
Issued by NWS Nashville, TN

Home | Current Version | Previous Version | Text Only | Print | Product List | Glossary On
Versions: 1 2 3 4 5 6 7 8 9 10 11 12 13 14 15 16 17 18 19 20
000
FTUS44 KOHX 010704 AAA
TAFCSV
TAF AMD
KCSV 010704Z 0107/0206 16003KT P6SM VCSH OVC009
     FM011000 21006KT 4SM BR OVC007
     FM011500 20007KT P6SM BKN030
     FM020200 24005KT P6SM VCSH SCT035 BKN060=

USA.gov is the U.S. government's official web portal to all federal, state and local government web resources and services.